Simultaneous Nadir Overpasses (SNOs) Predictions

Prediction of SNOs between NOAA-20 and AQUA Satellite Orbit:

Table of predicted SNOs for the next 14.0 days since TLE Epoch: 7/19/2019
Index Date (NOAA-20) Time (NOAA-20) Lat,Lon (NOAA-20) SZA (NOAA-20 ) Date (AQUA) Time (AQUA) Lat,Lon (AQUA) SZA (AQUA ) Distance(km) Time Diff (sec)
1 07/21/2019 13:43:12 -62.83, 12.68 88.08 07/21/2019 13:44:25 -62.65, 13.87 88.33 63.80 73
2 07/21/2019 14:29:35 76.40,-157.12 77.05 07/21/2019 14:29:37 76.39,-157.21 77.07 2.63 2
3 07/21/2019 15:19:23 -78.78, 21.65 106.23 07/21/2019 15:18:09 -78.88, 21.22 106.14 14.56 74
4 07/24/2019 05:56:04 -75.50, 148.33 101.32 07/24/2019 05:56:59 -75.50, 148.30 101.36 0.65 55
5 07/24/2019 06:46:30 76.33, -41.57 77.66 07/24/2019 06:46:07 76.34, -41.48 77.66 2.49 23
6 07/26/2019 22:12:48 -75.95, -94.45 101.30 07/26/2019 22:13:19 -75.94, -94.52 101.31 1.92 31
7 07/26/2019 23:03:15 76.72, 75.65 77.74 07/26/2019 23:02:28 76.73, 75.70 77.76 1.40 47
8 07/29/2019 14:29:40 -75.98, 21.42 100.74 07/29/2019 14:29:46 -75.98, 21.50 100.76 2.29 6
9 07/29/2019 15:20:00 77.05,-167.23 77.91 07/29/2019 15:18:49 77.05,-167.24 77.96 0.08 71
10 08/01/2019 05:55:59 75.45, -31.81 80.54 08/01/2019 05:56:58 75.45, -31.84 80.50 0.76 59




NCC Satellite Simultaneous Nadir Overpasses (SNOs) Prediction Service
